Location: Newark
(52.3735°N, 16.9806°E)
Time: 00:46:35
(UTC+00:00)

TIGRISAT - Pass Details

Date: 02 December 2022
Orbit: 601 x 684 km, 97.7° (Epoch: 29 January)

Event Time Altitude Azimuth Distance (km) Brightness Sun altitude
Rises 04:20:48 0° 182° (S) 2,887 ? -20.3°
Reaches altitude 10° 04:23:02 10° 188° (S) 1,997 ? -20.0°
Maximum altitude 04:27:12 45° 262° (W) 871 ? -19.3°
Enters shadow 04:27:39 44° 280° (W) 894 ? -19.3°
